Sivas, Turkey

9:45 AM EEST on August 29, 2016 (GMT +0300)
Sivas

Weather History for LTAR - July, 2013

Change the Weather History Date:

Monday, July 15, 2013

  Actual Average Record
Temperature  
Mean Temperature 70 °F -  
Max Temperature 85 °F 82 °F - ()
Min Temperature 54 °F 52 °F - ()
Cooling Degree Days 4    
Growing Degree Days 20 (Base 50)    
Moisture  
Dew Point 43 °F    
Average Humidity 44    
Maximum Humidity 82    
Minimum Humidity 8    
Precipitation  
Precipitation 0.00 in 0.01 in - ()
Sea Level Pressure  
Sea Level Pressure 30.04 in    
Wind  
Wind Speed 6 mph ()    
Max Wind Speed 18 mph    
Max Gust Speed -    
Visibility 9.0 miles    
Events      
T = Trace of Precipitation, MM = Missing Value Source: Averaged Metar Reports

Daily Weather History Graph

Daily Weather History Graph

Search for Another Location

Airport or City:

Trip Planner

Search our weather history database for the weather conditions in past years. The results will help you decide how hot, cold, wet, or windy it might be!

Date:

Astronomy

Jul. 15, 2013 Rise Set
Actual Time 5:16 AM EEST 7:59 PM EEST
Civil Twilight 4:45 AM EEST 8:31 PM EEST
Nautical Twilight 4:05 AM EEST 9:10 PM EEST
Astronomical Twilight 3:20 AM EEST 9:55 PM EEST
Moon 12:13 PM EEST (7/15) 11:34 PM EEST (7/15)
Length of Visible Light 15h 46m
Length of Day
14h 42m
Waxing Crescent, 42% of the Moon is Illuminated
Jul 15
Waxing Crescent
Jul 16
First Quarter
Jul 22
Full
Jul 29
Last Quarter
Aug 7
New

Hourly Weather History & Observations

Time (EEST) Temp. Dew Point Humidity Pressure Visibility Wind Dir Wind Speed Gust Speed Precip Events Conditions
12:00 AM 64 °F 50 °F 50%  in 9 mi North 4.5 mph - -  
12:50 AM 53.6 °F 48.2 °F 82% 30.06 in - NNE 6.9 mph - N/A   Clear
1:50 AM 51.8 °F 46.4 °F 82% 30.06 in - NNE 6.9 mph - N/A   Clear
2:50 AM 51.8 °F 44.6 °F 76% 30.06 in - Calm Calm - N/A   Clear
3:00 AM 60 °F 48 °F 55%  in 9 mi NE 2.2 mph - -  
3:50 AM 50.0 °F 44.6 °F 82% 30.04 in - Calm Calm - N/A   Clear
4:50 AM 51.8 °F 44.6 °F 76% 30.06 in - Calm Calm - N/A   Clear
5:50 AM 51.8 °F 44.6 °F 76% 30.06 in - NNW 8.1 mph - N/A   Clear
6:00 AM 57 °F 48 °F 63%  in 9 mi SSE 2.2 mph - -  
6:50 AM 57.2 °F 46.4 °F 67% 30.06 in - NNE 5.8 mph - N/A   Clear
7:50 AM 62.6 °F 44.6 °F 52% 30.06 in - ESE 3.5 mph - N/A   Clear
8:50 AM 64.4 °F 48.2 °F 56% 30.06 in - West 5.8 mph - N/A   Clear
9:00 AM 68 °F 47 °F 36%  in 9 mi WSW 2.3 mph - -  
9:50 AM 68.0 °F 46.4 °F 46% 30.06 in - Variable 4.6 mph - N/A   Clear
10:00 AM 74 °F 43 °F 22%  in 9 mi South 6.7 mph - -  
10:50 AM 71.6 °F 37.4 °F 29% 30.06 in - North 9.2 mph - N/A   Clear
11:00 AM 76 °F 43 °F 20%  in 9 mi SSE 6.7 mph - -  
11:50 AM 73.4 °F 39.2 °F 29% 30.04 in - Variable 8.1 mph - N/A   Clear
12:00 PM 81 °F 41 °F 15%  in 9 mi ENE 8.9 mph - -  
12:50 PM 75.2 °F 39.2 °F 27% 30.04 in - NNW 11.5 mph - N/A   Clear
1:00 PM 83 °F 37 °F 11%  in 9 mi ENE 6.7 mph - -  
1:50 PM 75.2 °F 33.8 °F 22% 30.04 in - NNW 11.5 mph - N/A   Clear
2:00 PM 83 °F 37 °F 11%  in 9 mi NNE 6.7 mph - -  
2:50 PM 77.0 °F 35.6 °F 22% 30.04 in - NW 13.8 mph - N/A   Clear
3:00 PM 84 °F 35 °F 9%  in 9 mi North 5.8 mph - -  
3:50 PM 77.0 °F 37.4 °F 24% 30.01 in - NNW 15.0 mph - N/A   Clear
4:00 PM 83 °F 31 °F 8%  in 9 mi NNW 8.9 mph - -  
4:50 PM 75.2 °F 41.0 °F 29% 30.01 in - NNW 16.1 mph - N/A   Clear
5:00 PM 84 °F 40 °F 12%  in 9 mi NNW 11.2 mph - -  
5:50 PM 73.4 °F 41.0 °F 31% 30.01 in - NNW 16.1 mph - N/A   Clear
6:00 PM 82 °F 39 °F 12%  in 9 mi North 11.2 mph - -  
6:50 PM 69.8 °F 46.4 °F 43% 30.01 in - NNW 18.4 mph - N/A   Clear
7:50 PM 66.2 °F 50.0 °F 56% 30.04 in - North 13.8 mph - N/A   Clear
8:50 PM 62.6 °F 50.0 °F 63% 30.04 in - North 9.2 mph - N/A   Clear
9:00 PM 70 °F 49 °F 36%  in 9 mi NNE 6.7 mph - -  
9:50 PM 59.0 °F 50.0 °F 72% 30.04 in - North 6.9 mph - N/A   Clear
10:50 PM 57.2 °F 50.0 °F 77% 30.04 in - North 4.6 mph - N/A   Clear
11:50 PM 55.4 °F 48.2 °F 77% 30.04 in - NNW 3.5 mph - N/A   Clear